GFSNGP_700_spd_057.txt.gz
Wind_Speed
23 23 20 23 23 22 21 19 22 27 25 11 12 15 19 12 3 13 20 17 27 32 20 20 33 47 35 34 35 34 30 30 25 30 29 30 31 31 31 31 28 26 24 22
26 23 25 26 25 25 26 26 27 23 32 30 23 22 23 23 13 4 9 14 9 13 21 31 30 27 45 34 39 37 32 29 25 22 29 30 29 30 31 29 30 30 28 27
24 16 18 23 27 25 25 25 27 30 29 26 26 24 21 26 27 15 7 13 11 3 3 17 39 27 38 27 36 32 34 31 29 26 23 29 28 28 28 30 29 31 31 29
18 10 3 26 16 23 27 32 28 29 28 30 30 30 29 25 27 27 21 10 3 5 9 11 36 41 45 46 51 32 26 30 30 32 27 24 28 30 29 28 30 30 30 31
16 14 20 26 23 12 20 33 29 25 22 38 37 38 36 31 34 30 22 21 15 9 9 3 13 15 39 54 53 40 32 28 29 30 30 25 23 22 27 29 29 30 29 30
17 7 6 30 15 17 23 31 27 26 24 32 41 43 45 41 38 36 26 28 29 21 14 9 6 7 15 33 39 38 20 22 26 30 32 29 25 25 22 21 24 28 29 29
23 15 15 21 24 23 14 26 31 35 36 33 36 43 51 49 48 46 31 44 39 25 18 11 9 14 21 9 34 26 24 20 24 28 29 27 28 29 27 24 23 22 26 29
8 6 10 19 21 12 26 39 36 36 39 45 46 49 51 54 51 49 42 39 54 34 22 10 15 16 16 17 20 28 31 30 33 28 32 34 32 31 32 31 29 27 26 26
12 13 23 29 29 28 33 41 43 42 45 49 48 50 53 57 53 54 50 45 51 50 36 31 18 18 23 29 28 32 35 36 36 33 30 36 37 35 34 35 33 31 31 31
21 24 26 27 24 27 37 44 47 50 52 57 59 54 56 53 49 44 56 54 45 37 45 38 25 22 19 27 34 37 43 44 42 39 32 34 39 40 38 36 37 35 32 31
27 31 27 19 23 27 27 32 37 40 41 47 56 61 59 54 47 47 45 50 47 43 47 52 41 31 27 23 33 37 37 43 41 38 36 32 35 39 41 39 38 36 30 27
24 29 25 26 27 26 25 22 22 22 23 25 29 38 44 46 38 39 42 46 41 44 46 51 55 38 33 32 31 35 39 37 44 44 41 38 36 34 38 40 40 39 31 30
21 24 26 25 23 27 22 19 20 22 12 13 23 29 31 32 33 42 42 40 43 43 46 48 56 52 48 40 34 36 36 36 40 45 46 43 41 39 37 36 41 42 35 33
20 23 28 26 28 27 26 20 15 18 17 17 18 13 18 31 37 44 46 47 46 44 47 48 47 49 51 47 44 38 39 33 39 43 48 47 46 44 43 39 40 43 37 35
18 21 25 26 31 27 30 23 16 13 18 18 22 11 14 25 29 33 38 42 45 43 49 44 49 50 46 45 42 40 39 35 39 41 45 44 47 48 47 43 39 43 42 38
19 22 20 26 26 32 28 26 22 14 11 10 14 16 15 20 28 32 41 43 40 41 38 37 41 45 41 40 37 35 42 45 42 41 47 44 42 43 51 48 43 46 43 41
16 16 17 24 22 28 29 31 27 22 16 10 7 9 11 18 20 24 30 35 37 41 33 34 35 35 32 33 27 31 33 37 43 47 48 45 40 43 46 44 40 45 45 38
17 12 24 18 23 21 32 35 29 25 23 18 12 9 8 12 13 17 23 26 36 28 33 36 26 30 24 34 37 32 37 36 33 41 43 43 46 48 46 45 40 38 39 42
14 25 21 21 18 24 24 30 32 24 23 23 19 16 11 5 10 14 16 24 27 35 36 34 38 21 31 28 26 26 30 36 25 31 40 41 43 46 45 49 49 16 35 35
16 12 19 17 17 25 21 24 29 30 27 21 21 20 18 13 7 7 17 15 25 25 25 20 34 25 27 21 20 31 29 27 23 35 35 41 44 48 45 36 37 31 49 40
18 10 11 14 17 24 21 21 25 28 27 33 27 26 21 17 13 11 6 18 23 19 21 19 25 27 27 24 18 15 27 18 26 15 27 24 37 31 26 26 30 33 34 36
8 19 14 12 8 12 18 23 22 23 23 27 32 29 21 19 17 15 10 0 14 27 23 21 17 20 24 19 18 14 12 15 13 12 11 10 14 21 17 16 16 11 14 18
8 9 7 13 12 13 11 17 17 18 20 24 31 33 28 23 16 13 12 9 6 2 19 21 13 14 16 15 15 14 16 15 15 12 11 10 6 2 4 7 16 18 15 22
8 6 10 2 12 7 6 10 14 15 18 24 25 29 29 22 23 24 24 19 13 5 5 11 23 15 16 18 17 18 17 17 17 18 24 24 24 18 18 18 17 15 15 16
12 11 9 5 5 10 9 13 16 13 14 22 19 23 26 23 20 21 23 23 19 15 10 6 4 6 7 15 20 21 21 21 23 22 22 22 25 28 27 28 30 27 23 23
15 15 10 5 6 5 2 12 13 9 17 19 18 17 20 21 20 17 18 19 19 20 18 13 9 5 5 8 10 15 20 24 24 24 25 25 24 24 25 25 25 25 22 20
17 17 11 7 9 5 3 3 10 9 10 13 10 11 16 16 19 20 20 17 16 18 17 18 17 15 11 7 4 4 7 9 11 14 17 20 22 24 26 27 26 26 28 28

GFSNGP_700_spd_060.txt.gz
Wind_Speed
17 18 20 23 26 23 16 12 7 12 11 12 13 9 8 8 7 2 31 38 42 35 39 27 27 41 45 41 35 31 31 33 35 38 38 37 37 38 36 34 33 32 30 26
16 22 24 28 33 34 30 23 15 15 14 6 15 14 6 9 17 4 2 20 30 39 38 31 32 32 34 39 40 33 30 33 33 33 39 38 39 38 39 38 35 34 33 30
10 13 21 26 26 28 31 20 19 19 18 20 17 13 13 10 18 21 5 8 14 23 26 37 39 38 38 37 38 37 30 33 35 33 34 37 37 39 38 40 38 37 37 35
10 12 3 18 15 18 23 21 16 20 23 28 22 11 16 18 16 22 18 12 14 24 24 21 24 34 32 37 41 37 40 36 37 35 33 31 33 36 37 38 39 38 37 37
7 11 19 29 21 20 24 26 25 23 25 32 34 20 17 21 25 23 25 21 16 15 18 22 8 26 30 33 37 37 46 38 38 33 33 29 31 29 34 36 37 36 34 36
11 5 6 7 5 8 12 23 23 26 25 34 43 31 33 30 28 28 24 28 25 18 15 7 2 25 24 38 36 42 44 45 40 28 25 24 31 31 27 30 32 33 33 32
8 12 12 22 24 26 20 26 26 32 33 37 43 39 42 42 41 36 29 28 27 28 23 17 8 4 14 17 25 46 44 45 41 31 27 23 26 28 33 31 28 29 33 32
6 6 7 16 17 16 23 31 34 36 37 42 43 42 44 47 48 48 44 37 31 34 32 33 22 8 9 6 19 38 55 51 47 37 30 20 24 26 31 36 35 32 29 29
7 13 20 27 32 30 31 37 37 41 43 46 48 47 46 47 53 56 52 49 47 40 41 40 36 27 16 9 9 25 33 50 34 36 32 27 25 25 26 34 39 37 35 31
13 15 20 15 15 20 23 27 29 33 40 47 54 51 48 51 53 58 59 55 54 51 53 45 47 38 29 24 14 29 29 37 36 36 37 32 33 33 30 31 37 40 39 36
16 18 20 20 19 19 22 23 23 27 31 32 34 39 43 49 53 58 60 56 56 55 56 50 59 48 39 39 27 21 27 28 35 36 38 37 38 38 33 34 36 37 39 39
17 17 21 22 22 23 24 28 23 25 23 23 26 28 32 38 43 48 54 59 56 53 54 48 49 59 44 45 35 30 29 29 26 35 36 42 41 43 37 35 36 34 33 38
15 16 17 22 24 26 27 28 24 22 21 24 22 24 21 29 31 35 44 49 52 53 49 46 45 52 46 59 45 38 36 34 32 34 40 47 48 46 41 36 33 31 30 34
11 17 17 21 24 26 29 28 26 21 20 22 25 24 26 20 23 25 28 32 42 43 40 43 42 43 46 54 54 51 46 38 38 38 42 45 46 47 42 40 37 35 33 30
10 13 17 20 23 23 29 31 27 24 21 18 18 23 25 21 20 25 27 40 35 33 38 32 38 41 44 50 55 56 53 45 41 42 43 43 45 48 46 42 42 41 38 37
13 12 18 18 21 20 27 30 30 24 24 20 16 13 15 21 22 29 20 27 30 30 36 37 38 38 42 49 51 52 52 53 53 48 44 44 40 37 37 38 39 41 41 40
13 14 14 12 14 18 22 28 30 28 23 23 20 16 13 15 16 16 23 31 32 28 29 36 31 35 36 42 51 51 51 51 52 49 45 45 43 38 39 39 40 38 37 39
14 13 16 13 16 18 19 22 27 31 32 24 24 20 16 11 12 14 18 19 27 32 31 31 33 30 32 37 44 51 49 50 48 44 45 47 50 46 44 46 47 44 39 38
14 12 14 11 15 16 18 18 23 26 33 35 24 24 21 16 10 9 12 15 19 22 26 26 22 23 26 31 35 41 44 42 41 42 45 46 45 48 48 48 48 46 38 38
9 9 12 10 8 15 16 20 20 22 28 37 31 23 25 21 14 9 7 12 14 20 21 26 27 25 27 29 27 29 29 33 42 34 25 33 37 32 43 50 47 48 42 36
15 15 8 12 11 12 14 17 20 21 23 31 36 28 27 27 19 14 8 4 10 18 23 22 25 29 30 23 19 26 35 29 29 35 24 26 37 32 30 42 34 41 48 44
7 7 9 13 15 9 8 14 18 18 20 25 30 26 24 25 22 18 14 9 1 10 20 23 22 25 33 22 19 15 22 25 28 21 24 22 28 36 37 38 40 29 38 41
9 14 10 13 17 15 8 11 16 16 18 23 26 29 21 23 22 24 18 15 13 11 1 15 20 18 27 11 16 15 19 25 20 29 26 23 21 16 22 31 26 24 26 25
9 8 10 8 12 13 9 13 17 15 18 22 23 26 24 20 21 22 25 22 16 12 11 4 10 17 16 13 12 22 19 21 16 13 15 16 15 15 15 12 12 11 18 23
11 12 12 11 12 6 6 12 15 14 16 20 19 19 22 19 17 21 24 22 22 20 15 10 8 5 9 23 19 3 17 13 11 12 7 7 12 13 12 14 13 12 11 14
12 14 15 13 13 8 2 8 13 15 15 18 16 13 15 17 17 19 21 22 22 23 23 20 18 11 8 6 8 9 8 4 8 4 6 9 8 8 9 11 12 15 17 20
10 15 15 9 16 12 4 4 11 15 14 13 14 15 18 16 16 17 21 23 23 22 21 20 21 19 18 14 7 5 2 2 4 2 5 8 10 12 11 13 16 18 18 18

GFSNGP_700_spd_063.txt.gz
Wind_Speed
4 7 11 15 16 15 10 6 6 5 7 3 4 4 7 10 4 7 15 21 28 33 39 37 35 36 32 31 39 41 39 34 28 27 27 29 32 33 35 34 32 30 29 27
10 14 16 20 19 19 16 12 19 19 13 8 4 5 8 9 6 9 7 14 27 33 37 39 37 37 38 31 31 38 38 35 30 29 27 28 31 33 35 37 37 36 34 32
5 14 19 14 1 1 3 3 12 17 21 17 16 13 14 13 11 7 10 3 10 22 38 37 33 43 30 26 28 33 35 33 30 31 30 29 29 33 36 38 39 39 38 37
2 8 2 4 6 6 7 5 8 14 24 21 17 23 19 18 17 15 12 12 10 10 18 32 37 43 37 28 25 29 32 29 31 31 31 30 28 32 34 37 39 40 40 40
2 8 13 18 16 13 14 16 18 19 23 27 17 21 28 24 23 22 22 21 21 17 14 10 13 29 37 34 35 36 37 37 35 33 31 28 28 32 31 35 36 38 39 41
8 3 4 3 6 8 10 20 15 19 26 31 34 29 31 32 32 29 27 27 29 32 25 13 10 10 14 24 24 31 40 41 38 37 33 31 26 26 32 32 31 33 35 36
10 9 9 17 21 21 17 19 21 24 27 32 36 40 36 39 39 38 35 34 33 32 33 27 16 11 14 15 21 25 32 32 36 35 33 32 27 26 29 36 32 31 30 32
4 6 9 12 18 19 21 26 27 31 36 42 40 43 42 36 41 44 46 42 40 42 39 34 31 21 19 20 25 23 34 36 38 40 39 36 32 28 28 36 37 34 31 28
5 7 11 15 20 22 27 30 32 35 38 42 45 46 48 43 42 46 49 52 46 47 47 49 35 33 29 23 19 13 21 28 36 37 40 38 32 32 33 34 38 37 34 31
10 8 12 16 16 19 18 20 23 29 33 36 38 38 43 45 43 48 50 54 54 53 52 56 55 55 37 32 25 21 16 16 24 22 34 41 40 37 35 31 36 40 37 35
13 11 11 12 14 15 17 19 22 24 26 30 33 34 36 36 39 45 51 52 55 57 55 54 51 60 57 44 39 34 26 21 29 26 27 33 40 42 41 34 35 37 37 34
15 11 9 11 15 17 19 21 21 23 22 22 26 31 32 33 34 37 44 46 50 57 59 55 57 52 61 58 50 42 35 27 27 33 34 39 41 40 38 33 34 34 28 30
9 9 12 13 16 17 19 20 25 25 23 24 23 24 28 29 27 28 31 35 43 49 56 54 54 58 58 65 66 57 41 36 31 29 29 46 35 41 43 35 33 32 31 33
9 10 8 14 15 15 19 22 22 24 24 25 23 21 23 24 25 28 28 26 28 36 46 50 50 53 55 63 63 64 54 44 37 32 30 27 29 33 49 48 41 38 37 35
9 11 11 16 12 13 16 20 21 25 24 24 25 23 20 21 20 24 23 26 28 30 33 40 46 49 54 54 53 65 58 50 43 38 35 32 34 35 36 46 44 40 38 38
12 12 14 16 12 12 13 17 21 25 28 28 23 23 22 20 19 18 25 26 32 33 30 32 39 43 48 53 52 52 59 65 56 52 46 42 40 39 39 44 44 41 41 40
11 10 9 12 12 16 13 15 19 23 30 34 21 22 24 22 19 19 20 25 33 34 31 30 31 38 41 46 51 55 57 59 69 59 55 51 46 44 42 42 43 44 37 36
12 15 15 12 12 11 11 14 18 21 26 32 31 24 25 26 19 16 18 21 24 31 28 28 30 34 41 40 46 54 57 55 62 61 60 56 50 49 48 47 45 45 42 39
11 8 10 10 13 10 11 14 16 19 23 29 33 29 26 28 21 17 15 18 20 22 26 31 37 37 37 41 39 46 55 57 61 64 64 58 53 52 50 52 48 44 45 44
11 8 12 11 12 12 12 16 15 16 22 28 31 26 27 27 27 19 14 12 16 17 21 25 24 29 28 33 37 40 48 49 55 56 57 53 55 52 49 50 47 47 46 44
13 16 12 9 6 6 13 11 13 14 19 25 28 28 25 26 26 21 13 8 7 11 14 17 22 22 24 24 24 27 29 33 39 41 42 46 45 47 47 48 49 48 48 49
14 11 10 10 9 6 10 9 15 13 16 21 25 26 22 22 23 22 20 13 3 0 2 7 7 15 21 22 24 13 28 29 28 29 29 36 41 39 41 46 42 44 40 43
16 16 13 13 13 11 8 7 14 12 14 18 21 22 23 24 25 23 23 21 12 2 4 13 14 11 15 17 19 19 14 31 32 27 33 29 36 41 44 38 31 35 35 40
18 17 14 13 17 16 9 5 11 12 14 16 16 19 21 23 23 25 25 22 22 15 7 3 4 12 14 16 18 21 17 11 22 33 36 35 40 39 36 37 34 35 41 39
24 22 16 11 15 19 15 4 9 13 12 12 13 16 17 18 21 24 25 27 24 22 19 15 11 9 5 14 17 16 15 14 17 9 24 28 31 38 32 27 23 27 28 26
18 17 7 11 12 13 11 3 6 10 10 8 13 14 11 14 16 18 22 26 31 29 25 23 22 18 17 15 9 9 9 13 16 8 12 14 19 26 29 29 24 24 22 23
3 4 4 5 12 16 14 3 6 10 9 9 11 11 10 12 16 19 22 25 26 29 30 30 28 23 21 20 20 18 14 8 7 8 6 12 11 17 20 23 22 23 21 19

GFSNGP_700_spd_069.txt.gz
Wind_Speed
8 8 7 9 8 4 2 8 3 14 13 17 13 9 5 3 2 3 0 3 6 10 20 24 31 30 28 31 31 32 33 35 34 32 30 29 28 26 24 25 27 26 25 25
10 10 10 13 14 13 10 8 9 11 11 13 12 11 8 3 2 3 5 6 8 9 14 15 19 28 34 33 31 32 31 32 33 33 33 33 34 33 31 30 29 30 30 29
4 9 6 8 15 13 12 12 13 10 15 14 13 13 12 9 6 5 6 6 11 10 16 20 20 18 25 28 34 32 30 29 28 31 32 35 36 37 37 35 33 32 31 32
6 10 5 7 12 13 14 13 14 14 16 17 19 19 18 18 17 15 11 10 10 11 13 13 17 21 25 26 29 34 43 32 28 30 34 36 41 39 37 36 36 34 33 33
6 10 4 10 16 14 15 16 15 14 15 18 21 21 22 23 25 25 23 21 18 15 12 12 13 15 21 28 27 29 37 41 32 27 31 35 46 40 36 37 36 35 35 35
8 4 6 6 14 16 14 12 18 19 21 22 23 23 27 27 29 31 32 30 29 26 23 19 16 14 18 22 25 29 39 38 25 30 26 32 42 44 38 38 36 36 36 36
7 4 5 11 10 9 5 7 10 13 18 20 22 27 27 28 28 32 37 38 38 36 34 32 28 23 17 17 19 23 28 31 37 36 29 32 37 41 41 40 39 38 37 36
11 6 7 9 9 9 10 14 18 20 22 24 27 30 32 34 37 38 39 40 43 45 43 43 39 35 31 24 20 22 22 25 29 33 32 30 34 36 40 40 40 41 40 38
8 7 7 8 10 12 13 15 17 18 20 22 23 24 24 28 34 39 42 42 45 50 51 47 49 47 41 37 33 28 25 18 20 23 20 24 28 32 41 40 40 40 41 40
8 10 9 10 11 11 11 13 14 15 18 22 25 26 28 29 30 32 37 45 50 51 52 55 51 54 53 48 43 39 35 29 24 18 15 18 19 25 33 37 41 40 42 41
11 12 14 12 10 10 11 13 15 17 20 23 26 26 28 28 31 31 33 37 43 50 53 53 56 55 57 57 54 48 44 43 38 31 25 19 18 19 23 24 33 37 40 40
12 11 11 11 9 9 10 12 16 20 22 22 24 24 26 27 30 31 31 34 38 43 49 52 53 58 57 58 60 59 53 47 49 43 36 28 26 24 23 25 24 29 36 41
11 9 10 10 10 10 10 14 17 18 19 19 20 23 26 27 29 31 31 31 36 40 43 47 50 54 59 56 61 64 62 57 56 55 48 40 35 33 31 28 26 27 28 35
10 8 8 8 10 12 13 13 14 15 15 18 21 22 25 27 27 30 32 33 34 37 40 41 45 49 54 55 57 62 65 64 59 61 55 53 51 42 39 35 34 29 27 29
9 9 10 9 11 14 11 13 14 11 14 18 21 23 26 29 30 27 30 33 36 37 36 36 38 42 46 49 54 58 63 64 64 62 61 62 57 48 49 46 40 38 35 28
9 10 13 11 15 16 13 14 14 12 15 19 20 24 28 30 31 29 29 34 38 37 34 33 34 37 40 42 49 53 59 64 64 64 64 63 58 60 56 51 48 41 38 40
8 10 13 15 17 19 18 14 15 13 16 20 22 25 30 33 33 28 29 32 35 34 32 33 32 32 38 38 39 45 50 58 62 64 65 65 66 65 61 56 56 47 41 40
7 12 15 17 17 18 16 15 17 17 19 22 24 26 30 33 32 29 31 34 34 35 29 29 30 31 33 39 37 39 40 46 55 61 64 67 67 66 66 65 64 56 46 43
14 18 18 17 16 19 18 17 18 20 20 21 25 25 28 29 28 29 30 34 37 38 29 22 24 29 30 35 40 43 42 42 48 58 63 66 67 66 67 69 69 66 51 50
20 20 19 18 19 20 19 18 18 17 18 19 22 23 24 24 25 24 27 32 36 38 34 24 23 21 25 28 33 36 37 39 43 49 58 63 64 65 66 68 70 64 65 56
22 22 21 22 18 19 20 18 15 15 16 17 19 19 19 21 24 26 29 31 36 37 35 26 19 19 21 27 30 35 35 37 37 41 46 57 60 62 63 65 69 72 72 63
23 27 25 22 23 22 19 17 15 17 15 16 18 16 17 18 22 24 25 32 37 38 36 29 22 20 22 22 26 29 30 33 35 36 38 47 56 57 60 61 65 66 65 64
27 27 25 25 29 26 28 19 17 16 14 14 14 12 15 17 22 26 22 27 34 36 34 30 23 19 19 22 19 26 30 28 30 32 33 41 48 49 52 57 59 59 61 60
18 20 22 22 19 24 26 25 20 15 13 11 10 9 10 12 18 24 26 23 29 35 32 28 25 20 17 15 14 10 16 20 25 29 40 34 35 40 43 48 50 49 50 52
17 19 20 21 23 25 29 29 20 13 9 6 6 8 9 13 16 21 25 26 27 30 33 29 25 20 15 13 11 8 7 5 15 30 30 28 28 30 32 36 38 43 43 44
12 12 13 14 16 7 16 20 16 9 6 1 4 8 9 11 14 18 24 26 27 28 30 31 30 26 18 13 12 9 10 10 8 3 14 19 21 25 27 31 29 25 30 35
10 13 15 16 6 4 6 18 16 8 6 3 5 9 10 7 11 15 22 26 24 25 27 28 28 32 27 21 14 10 13 15 14 14 18 14 21 19 20 32 29 35 35 35

GFSNGP_700_spd_072.txt.gz
Wind_Speed
5 6 6 7 5 2 6 11 11 16 17 14 12 15 12 10 10 8 6 6 7 14 18 24 27 27 34 32 35 37 35 35 32 32 31 30 27 27 23 23 23 24 24 24
5 8 5 6 6 6 5 5 8 15 16 11 15 14 14 12 9 9 9 9 9 10 10 13 18 24 33 33 32 38 37 36 35 34 33 35 32 30 31 27 27 27 29 29
13 7 6 12 15 10 11 10 11 14 14 18 16 17 14 12 11 10 9 11 12 11 13 14 14 16 20 32 36 34 35 35 35 36 35 35 35 37 37 35 32 33 32 33
5 7 8 6 15 16 12 10 14 20 18 21 19 17 16 16 14 13 12 11 11 14 14 14 17 18 19 23 24 25 32 33 34 31 33 40 39 36 35 35 38 38 36 36
6 15 1 6 10 10 13 10 19 18 21 20 19 16 20 21 22 21 20 19 18 16 14 16 16 16 19 19 23 22 24 35 30 31 31 31 33 35 37 42 41 40 38 37
8 6 5 5 14 17 13 10 15 16 16 17 15 9 17 27 25 27 28 26 26 26 24 22 19 18 18 18 21 21 26 26 34 42 43 50 32 36 36 40 47 45 42 39
9 8 6 7 9 13 9 7 10 13 13 12 14 19 24 24 26 29 32 34 34 32 33 34 31 27 23 21 22 24 28 33 31 34 46 48 34 29 34 36 45 47 43 40
9 8 9 10 13 10 12 10 11 13 15 16 17 20 22 24 28 30 32 35 38 38 38 38 40 39 36 31 28 25 25 25 32 31 44 51 48 46 38 37 39 45 45 44
8 6 9 7 9 10 11 11 9 10 11 12 13 15 18 19 22 24 27 30 35 40 43 43 42 43 46 45 41 36 30 28 25 29 30 43 52 52 44 40 42 44 47 46
10 9 14 14 11 9 9 9 8 9 11 13 14 16 18 20 22 24 26 27 27 32 38 44 47 47 46 48 52 50 44 38 32 33 34 32 35 34 34 34 31 41 47 47
18 18 14 15 13 12 11 10 10 10 11 13 15 17 19 21 22 24 26 29 31 30 31 36 42 50 54 52 51 56 57 51 46 40 34 34 31 28 28 28 31 42 42 46
17 15 15 15 12 12 11 11 10 11 14 15 15 16 18 19 22 23 24 28 32 33 32 34 36 41 48 55 55 53 57 62 58 52 46 42 39 35 30 28 30 37 32 31
14 15 14 13 11 11 11 10 12 12 13 14 15 15 16 18 20 23 25 28 31 34 35 34 35 38 40 48 54 56 55 58 65 64 58 55 50 44 39 35 31 31 34 28
18 15 15 13 11 11 11 11 10 11 13 14 15 15 16 18 21 25 27 28 30 32 34 36 37 37 38 40 47 53 56 55 58 67 68 63 58 57 50 42 39 33 32 32
18 13 14 12 11 10 11 11 11 12 13 13 13 16 19 22 26 28 30 31 29 29 32 36 39 39 37 38 41 46 53 56 56 60 70 71 67 61 61 57 48 42 38 35
20 17 15 12 12 11 13 13 13 13 14 14 15 16 19 23 28 30 31 31 29 28 31 35 38 38 36 36 36 40 47 54 57 57 63 71 72 69 63 64 55 53 48 41
15 15 13 12 13 15 17 17 18 17 16 18 19 20 20 24 27 30 30 29 28 28 31 35 40 38 33 33 33 36 42 47 53 57 59 65 73 73 69 64 68 64 57 51
12 12 11 11 14 15 16 18 17 18 20 19 19 21 22 24 27 29 29 28 28 29 31 34 39 37 30 29 31 33 38 43 48 51 55 60 66 71 70 69 68 66 66 63
10 12 11 16 16 17 18 17 18 19 21 19 20 17 21 25 25 27 28 29 31 30 29 32 35 32 28 27 28 31 35 40 43 43 48 55 57 63 68 69 70 70 66 65
16 17 18 20 21 21 21 20 21 20 22 20 18 18 21 24 24 26 26 25 31 32 31 32 33 29 25 24 21 26 30 35 39 42 42 45 49 54 61 67 69 70 68 68
20 20 22 24 27 27 26 25 24 23 22 20 18 17 20 20 20 23 24 27 31 32 33 32 31 27 23 21 23 24 25 29 34 39 43 48 49 48 53 60 65 68 68 68
20 21 23 26 30 31 32 29 27 25 22 19 17 16 19 16 16 19 22 23 27 31 33 34 33 30 25 21 20 21 19 23 30 34 38 39 42 43 49 51 57 62 65 66
28 29 27 24 25 25 26 32 27 25 22 18 16 15 16 12 14 15 17 21 25 27 27 31 32 31 28 26 24 23 21 17 23 32 36 41 41 45 45 47 49 52 57 60
21 21 22 24 26 26 26 20 26 29 26 20 15 13 10 8 8 10 17 21 24 26 21 29 33 32 28 26 25 23 22 21 19 23 29 35 37 41 41 40 41 44 48 51
14 12 13 14 17 16 22 26 25 25 24 17 10 10 5 8 8 11 14 16 20 23 19 25 30 33 32 27 24 24 21 19 18 18 21 25 28 36 40 41 40 40 41 42
12 11 13 16 18 25 14 11 17 18 14 8 7 3 2 8 9 11 14 21 23 24 19 20 25 30 31 27 24 20 19 18 17 14 12 16 25 31 31 36 34 37 34 31
13 14 15 13 13 13 13 18 20 14 11 7 2 2 2 3 8 9 14 15 18 19 18 20 21 23 26 30 28 19 15 14 14 16 16 16 11 10 19 23 31 33 34 28

GFSNGP_700_spd_075.txt.gz
Wind_Speed
6 3 3 17 17 16 22 21 17 20 21 20 18 15 13 12 10 10 9 12 15 24 26 22 27 31 34 38 38 35 35 30 30 37 33 29 29 28 26 26 24 23 23 23
15 11 3 7 10 8 12 13 13 17 20 17 15 15 12 11 12 13 10 10 10 10 15 21 21 24 33 31 30 32 36 37 38 36 37 35 29 28 31 30 28 27 27 27
19 16 10 16 14 12 11 11 10 17 21 16 14 13 11 9 15 16 14 12 13 11 10 12 14 18 21 29 34 33 35 32 34 35 38 34 33 32 31 31 31 30 30 30
20 12 13 14 18 15 14 13 6 12 18 15 15 11 10 17 17 16 15 15 16 17 13 15 16 16 17 19 24 32 32 35 37 37 42 39 37 36 35 35 35 34 34 33
20 16 8 5 10 16 18 15 15 11 12 13 13 10 12 17 20 21 20 19 17 16 14 17 16 16 20 18 20 21 26 27 33 39 40 41 40 38 37 37 36 33 33 34
13 12 15 10 12 15 15 17 20 14 13 11 12 11 17 26 23 23 23 24 24 23 21 21 20 20 20 19 21 21 20 24 25 32 40 38 40 38 37 38 38 38 37 39
13 12 7 7 8 7 12 10 15 14 13 12 11 21 28 26 27 27 28 28 27 28 29 30 29 27 25 25 25 24 24 24 23 25 28 38 39 39 36 37 33 35 38 41
15 16 15 9 6 9 13 8 11 11 13 15 19 22 27 25 28 30 31 32 31 31 31 33 34 36 37 35 33 31 29 29 31 31 32 31 41 45 46 43 37 38 35 36
10 6 14 8 7 18 12 12 12 11 14 14 15 17 20 18 22 26 27 29 31 33 33 33 34 36 39 40 42 41 38 35 33 32 34 31 35 41 43 49 48 39 35 36
9 9 12 11 10 10 13 12 14 15 13 11 12 13 15 15 18 20 21 24 26 27 31 31 32 33 35 39 43 44 47 46 42 40 38 36 37 37 37 45 49 44 48 45
14 13 9 13 15 13 13 14 13 13 12 12 11 13 15 16 17 20 19 22 24 26 28 30 33 34 34 36 39 44 47 48 51 51 46 43 40 40 41 40 49 58 56 52
16 8 15 12 16 15 16 14 13 13 13 13 13 13 13 13 16 16 18 19 21 24 26 29 30 33 35 35 37 41 43 48 52 53 57 55 51 47 46 43 41 43 42 43
18 16 16 14 17 16 15 14 14 14 14 13 12 11 11 12 15 17 19 21 24 24 25 27 29 32 35 37 37 39 42 43 49 54 56 58 61 59 56 50 48 45 43 41
20 25 19 16 15 16 15 14 15 14 13 12 12 11 11 13 15 18 20 22 25 27 29 29 30 31 34 37 39 39 41 43 44 49 54 57 58 64 63 61 55 52 45 41
20 21 16 14 14 15 14 14 14 15 13 12 11 14 17 15 16 19 23 23 24 26 28 31 31 31 32 35 38 41 43 42 44 46 49 55 58 60 64 67 64 58 54 47
29 23 18 17 15 16 14 15 14 14 13 13 13 18 17 19 20 23 24 24 25 25 27 30 31 32 32 35 38 40 42 44 44 46 48 51 54 56 59 60 66 67 63 57
12 21 21 19 18 16 16 14 16 17 16 17 16 16 20 21 21 21 23 24 26 26 28 31 32 33 33 36 40 41 41 42 45 46 47 50 52 54 56 59 58 64 70 68
9 9 15 23 19 18 19 21 22 21 21 20 20 19 24 21 24 22 24 23 26 26 28 30 33 35 34 37 40 43 42 40 42 45 46 48 50 53 55 56 58 59 63 71
11 12 13 13 19 24 22 21 22 22 24 22 23 23 22 20 24 24 25 24 25 29 29 30 32 31 34 37 40 42 39 37 38 41 45 47 49 51 52 54 57 60 61 63
14 16 21 23 23 27 30 28 23 25 22 22 24 27 24 21 24 22 19 20 26 30 31 33 34 31 32 34 34 36 36 35 35 34 38 44 47 50 50 50 53 56 59 63
15 16 18 23 24 26 28 27 29 28 31 33 28 32 23 19 19 19 17 19 26 27 31 35 31 32 34 33 30 28 28 29 30 35 36 39 44 47 49 46 45 50 55 61
14 16 18 18 21 21 26 29 32 33 34 36 36 34 23 21 18 16 16 18 22 26 29 33 29 30 34 35 33 28 25 24 26 30 32 37 41 45 48 48 50 46 47 51
16 18 17 16 17 19 23 25 25 27 31 36 31 29 20 12 13 10 14 19 22 26 27 33 29 32 35 39 37 31 24 23 23 24 25 28 36 41 44 46 48 48 49 51
12 14 15 13 16 17 17 19 21 24 26 30 40 28 16 10 9 4 14 22 21 19 25 22 27 33 34 35 38 33 28 24 22 23 22 23 25 31 37 45 47 49 51 53
11 14 18 19 19 22 23 27 31 23 19 19 22 20 12 11 9 9 14 13 21 25 21 23 24 28 27 31 35 33 30 27 25 22 22 21 22 27 32 36 43 44 48 46
12 10 14 19 20 22 28 17 8 19 17 11 11 13 4 2 4 6 8 15 17 22 20 25 23 23 21 23 28 28 28 26 26 25 24 24 25 27 28 32 37 39 44 41
19 17 14 13 11 15 15 7 12 12 14 15 12 9 5 4 8 4 9 10 12 16 20 17 23 25 19 22 27 21 26 25 23 23 24 24 25 27 28 23 19 22 27 32